This demonstration page uses our WeatherBlox Daily Observations layout. Learn more.

38.89511, -77.03637

Hourly Observations for July 7, 2017

Temp ( °F °C ) Dew Point ( °F °C ) Humidity (%) Winds ( mph kmh ) Pressure ( in mb ) Visibility ( mi km ) Precip ( " mm )
12:22 am 00:22 Mostly Cloudy 75 24 73 23 94 94 ENE 6 9 29.91 1013 10 16.09344 0 0
12:52 am 00:52 Partly Cloudy 75 23.9 74 23.3 96 96 E 5 7 29.85 1011 10 16.09344 0 0
1:34 am 01:34 Mostly Cloudy 75 23.9 73 22.8 94 94 Calm 29.88 1012 10 16.09344 0 0
1:52 am 01:52 Cloudy 75 23.9 74 23.3 96 96 Calm 29.85 1011 10 16.09344 0 0
2:52 am 02:52 Cloudy 76 24.4 74 23.3 94 94 N 3 6 29.85 1011 10 16.09344 0 0
3:21 am 03:21 Cloudy 76 24.4 74 23.3 94 94 Calm 29.85 1011 10 16.09344 0 0
3:40 am 03:40 Cloudy 76 24.4 74 23.3 94 94 E 3 6 29.85 1011 10 16.09344 0 0
3:52 am 03:52 Cloudy 76 24.4 74 23.3 94 94 ESE 5 7 29.83 1010 10 16.09344 0 0
4:24 am 04:24 Cloudy 75 23.9 74 23.3 96 96 ESE 6 9 29.83 1010 10 16.09344 0 0
4:32 am 04:32 Cloudy 75 23.9 74 23.3 96 96 E 5 7 29.83 1010 10 16.09344 0 0
4:49 am 04:49 Partly Cloudy 75 24 73 23 94 94 E 3 6 29.83 1010 10 16.09344 0 0
4:52 am 04:52 Mostly Clear 75 23.9 73 22.8 94 94 E 3 6 29.8 1009 10 16.09344 0 0
5:21 am 05:21 Cloudy 75 23.9 73 22.8 94 94 Calm 29.83 1010 10 16.09344 0 0
5:36 am 05:36 Cloudy 75 23.9 73 22.8 94 94 S 3 6 29.83 1010 10 16.09344 0 0
5:52 am 05:52 Cloudy 75 23.9 74 23.3 96 96 S 6 9 29.8 1009 10 16.09344 0 0
6:11 am 06:11 Cloudy with Light Rain 75 23.9 74 23.3 96 96 S 7 11 29.83 1010 10 16.09344 0.001 0.001
6:18 am 06:18 Cloudy with Light Rain 75 23.9 74 23.3 96 96 SSW 8 13 29.83 1010 10 16.09344 0.001 0.001
6:28 am 06:28 Cloudy with Light Rain 75 23.9 74 23.3 96 96 SSW 7 11 29.83 1010 10 16.09344 0.001 0.001
6:40 am 06:40 Cloudy 75 23.9 74 23.3 96 96 SSW 5 7 29.83 1010 10 16.09344 0.001 0.001
6:52 am 06:52 Cloudy 75 23.9 74 23.3 96 96 SSW 5 7 29.8 1009 10 16.09344 0.001 0.001
7:52 am 07:52 Cloudy 76 24.4 74 23.3 94 94 WSW 6 9 29.8 1009 10 16.09344 0 0
8:47 am 08:47 Cloudy 79 26 73 23 84 84 W 12 19 29.83 1010 10 16.09344 0 0
8:52 am 08:52 Cloudy 78 25.6 73 22.8 85 85 W 7 11 29.83 1010 10 16.09344 0 0
9:52 am 09:52 Cloudy 79 26.1 72 22.2 79 79 WNW 13 20 29.83 1010 10 16.09344 0 0
10:52 am 10:52 Mostly Cloudy 81 27.2 72 22.2 74 74 NNW 14 22 29.83 1010 10 16.09344 0.01 0.254
11:24 am 11:24 Mostly Cloudy 81 27.2 70 21.1 69 69 NW 16 26 29.85 1011 10 16.09344 0 0
11:52 am 11:52 Mostly Cloudy 81 27.2 70 21.1 69 69 NW 18 30 29.85 1011 10 16.09344 0 0
12:09 pm 12:09 Partly Cloudy 83 28.3 70 21.1 65 65 NW 16 26 29.88 1012 10 16.09344 0 0
12:52 pm 12:52 Partly Cloudy 85 29.4 71 21.7 63 63 NNW 15 24 29.85 1011 10 16.09344 0 0
1:52 pm 13:52 Partly Cloudy 87 30.6 68 20 53 53 NW 12 19 29.83 1010 10 16.09344 0 0
2:52 pm 14:52 Partly Cloudy 89 31.7 70 21.1 53 53 W 12 19 29.8 1009 10 16.09344 0 0
3:52 pm 15:52 Partly Cloudy 90 32.2 65 18.3 44 44 W 14 22 29.8 1009 10 16.09344 0 0
4:52 pm 16:52 Partly Cloudy 90 32.2 65 18.3 44 44 W 12 19 29.8 1009 10 16.09344 0 0
5:52 pm 17:52 Partly Cloudy 90 32.2 67 19.4 47 47 SW 13 20 29.77 1008 10 16.09344 0 0
6:52 pm 18:52 Partly Cloudy 89 31.7 68 20 50 50 SW 15 24 29.77 1008 10 16.09344 0 0
7:52 pm 19:52 Partly Cloudy 88 31.1 66 18.9 48 48 SSW 10 17 29.77 1008 10 16.09344 0 0
8:52 pm 20:52 Mostly Cloudy 78 25.6 69 20.6 74 74 WSW 10 17 29.8 1009 10 16.09344 0 0
9:52 pm 21:52 Partly Cloudy 77 25 66 18.9 69 69 SSE 5 7 29.8 1009 10 16.09344 0 0
10:52 pm 22:52 Mostly Clear 76 24.4 68 20 77 77 SW 6 9 29.83 1010 10 16.09344 0 0
11:52 pm 23:52 Partly Cloudy 75 23.9 69 20.6 82 82 WSW 5 7 29.83 1010 10 16.09344 0 0

Powered by AerisWeather